Location: Gombori
(14.9797°N, 2.9419°W)
Time: 05:45:49
(UTC+00:00)

COSMOS 1275 DEB - Pass Details

Date: 02 June 2022
Orbit: 837 x 941 km, 83.0° (Epoch: 29 June)

Event Time Altitude Azimuth Distance (km) Brightness Sun altitude
Exits shadow 22:25:37 10° 12° (NNE) 2,635 ? -44.8°
Drops below altitude 10° 22:25:39 10° 12° (NNE) 2,645 ? -44.8°
Sets 22:28:09 0° 9° (N) 3,583 ? -45.2°
